LOG18FR EGPH-EGTE

Flight info

Callsign LOG18FR
Flight time 1h 2m
Altitude 31000
Route GOSAM P600 FENIK L612 NAVSO DCT ADZOP DCT EGTOC DCT NOKIN N862 KARNO DCT ALHUP DCT WEVBE DCT ABWIV N862 PACSE N92 EXMOR DCT TIVER
Aircraft CRJ7/M-SDFGIRWY/S

Departure

Time 2026-05-04 13:13
Airport Edinburgh Airport (EGPH)

Arrival

Time 2026-05-04 14:15
Airport Exeter International Airport (EGTE)
Time Latitude Longitude Altitude Speed Heading
2026-05-04 12:42 55.94712 -3.35361 115 ft 0 kts 208°
2026-05-04 12:43 55.94714 -3.35359 115 ft 0 kts 208°
2026-05-04 13:04 55.94721 -3.35352 115 ft 4 kts 208°
2026-05-04 13:04 55.94740 -3.35332 112 ft 4 kts 217°
2026-05-04 13:04 55.94753 -3.35296 112 ft 4 kts 265°
2026-05-04 13:04 55.94747 -3.35256 115 ft 2 kts 298°
2026-05-04 13:05 55.94747 -3.35255 115 ft 0 kts 298°
2026-05-04 13:08 55.94756 -3.35286 112 ft 5 kts 298°
2026-05-04 13:08 55.94779 -3.35360 114 ft 8 kts 298°
2026-05-04 13:09 55.94810 -3.35460 115 ft 10 kts 298°
2026-05-04 13:09 55.94845 -3.35573 115 ft 11 kts 298°
2026-05-04 13:09 55.94883 -3.35698 115 ft 12 kts 298°
2026-05-04 13:09 55.94924 -3.35825 115 ft 11 kts 309°
2026-05-04 13:10 55.94997 -3.35845 114 ft 12 kts 27°
2026-05-04 13:10 55.95075 -3.35785 114 ft 13 kts 358°
2026-05-04 13:10 55.95129 -3.35895 114 ft 12 kts 306°
2026-05-04 13:10 55.95203 -3.35981 113 ft 13 kts 340°
2026-05-04 13:11 55.95265 -3.35895 113 ft 13 kts 59°
2026-05-04 13:11 55.95313 -3.35752 114 ft 14 kts 59°
2026-05-04 13:11 55.95366 -3.35596 113 ft 15 kts 59°
2026-05-04 13:11 55.95424 -3.35429 114 ft 16 kts 50°
2026-05-04 13:12 55.95515 -3.35457 113 ft 15 kts 329°
2026-05-04 13:12 55.95562 -3.35588 111 ft 14 kts 243°
2026-05-04 13:12 55.95438 -3.35971 107 ft 72 kts 239°
2026-05-04 13:12 55.95050 -3.37114 116 ft 138 kts 239°
2026-05-04 13:13 55.94538 -3.38575 841 ft 135 kts 237°
2026-05-04 13:13 55.93980 -3.39910 1705 ft 136 kts 232°
2026-05-04 13:13 55.93384 -3.41214 2438 ft 133 kts 246°
2026-05-04 13:13 55.92985 -3.42694 3179 ft 135 kts 245°
2026-05-04 13:14 55.92496 -3.44340 3474 ft 169 kts 244°
2026-05-04 13:14 55.91863 -3.46387 3724 ft 210 kts 243°
2026-05-04 13:14 55.91065 -3.48820 4187 ft 244 kts 242°
2026-05-04 13:14 55.90309 -3.51715 4707 ft 271 kts 255°
2026-05-04 13:15 55.89892 -3.55150 5265 ft 297 kts 261°
2026-05-04 13:15 55.89561 -3.58858 6076 ft 306 kts 262°
2026-05-04 13:15 55.89238 -3.62632 6861 ft 311 kts 262°
2026-05-04 13:15 55.88907 -3.66437 7755 ft 311 kts 262°
2026-05-04 13:16 55.88569 -3.70034 8636 ft 311 kts 261°
2026-05-04 13:16 55.88191 -3.73830 9596 ft 310 kts 261°
2026-05-04 13:16 55.87807 -3.77612 10501 ft 309 kts 261°
2026-05-04 13:16 55.87429 -3.81360 11389 ft 307 kts 261°
2026-05-04 13:17 55.87062 -3.85096 12229 ft 307 kts 261°
2026-05-04 13:17 55.86688 -3.88862 12954 ft 311 kts 261°
2026-05-04 13:17 55.86306 -3.92670 13677 ft 312 kts 261°
2026-05-04 13:17 55.85927 -3.96483 14297 ft 315 kts 261°
2026-05-04 13:18 55.85539 -4.00347 14858 ft 321 kts 261°
2026-05-04 13:18 55.85151 -4.04234 15388 ft 328 kts 261°
2026-05-04 13:18 55.84762 -4.08098 15922 ft 334 kts 261°
2026-05-04 13:18 55.83931 -4.11972 16489 ft 342 kts 237°
2026-05-04 13:19 55.82138 -4.14808 17093 ft 353 kts 213°
2026-05-04 13:19 55.80075 -4.17149 17681 ft 351 kts 225°
2026-05-04 13:19 55.78486 -4.20406 18291 ft 350 kts 232°
2026-05-04 13:19 55.76664 -4.23241 18817 ft 356 kts 218°
2026-05-04 13:20 55.74649 -4.25515 19292 ft 361 kts 210°
2026-05-04 13:20 55.72185 -4.26589 19777 ft 373 kts 183°
2026-05-04 13:20 55.69599 -4.25998 20234 ft 379 kts 170°
2026-05-04 13:20 55.67016 -4.24851 20640 ft 385 kts 165°
2026-05-04 13:21 55.64543 -4.22930 21043 ft 391 kts 151°
2026-05-04 13:21 55.62211 -4.20382 21445 ft 396 kts 149°
2026-05-04 13:21 55.59874 -4.17771 21837 ft 400 kts 149°
2026-05-04 13:21 55.57477 -4.15264 22234 ft 403 kts 152°
2026-05-04 13:22 55.55072 -4.12924 22632 ft 405 kts 153°
2026-05-04 13:22 55.52587 -4.10541 23061 ft 408 kts 152°
2026-05-04 13:22 55.50094 -4.08123 23486 ft 410 kts 152°
2026-05-04 13:22 55.47592 -4.05695 23873 ft 411 kts 152°
2026-05-04 13:23 55.45203 -4.03377 24203 ft 413 kts 152°
2026-05-04 13:23 55.42685 -4.00941 24572 ft 414 kts 151°
2026-05-04 13:23 55.40156 -3.98486 24917 ft 415 kts 151°
2026-05-04 13:23 55.37630 -3.96043 25272 ft 415 kts 151°
2026-05-04 13:24 55.35167 -3.93664 25594 ft 416 kts 151°
2026-05-04 13:24 55.32658 -3.91246 25915 ft 417 kts 152°
2026-05-04 13:24 55.30108 -3.88791 26198 ft 419 kts 152°
2026-05-04 13:25 55.24974 -3.83846 26760 ft 422 kts 151°
2026-05-04 13:25 55.22375 -3.81421 27019 ft 425 kts 155°
2026-05-04 13:25 55.19616 -3.79535 27287 ft 427 kts 162°
2026-05-04 13:25 55.16759 -3.78062 27556 ft 429 kts 165°
2026-05-04 13:26 55.13980 -3.76716 27784 ft 431 kts 165°
2026-05-04 13:26 55.11086 -3.75268 28026 ft 433 kts 163°
2026-05-04 13:26 55.08205 -3.73704 28264 ft 434 kts 162°
2026-05-04 13:26 55.05318 -3.72115 28504 ft 435 kts 162°
2026-05-04 13:27 55.02424 -3.70532 28745 ft 437 kts 163°
2026-05-04 13:27 54.99612 -3.69005 28990 ft 437 kts 163°
2026-05-04 13:27 54.96796 -3.67477 29227 ft 438 kts 163°
2026-05-04 13:27 54.93989 -3.65957 29472 ft 439 kts 162°
2026-05-04 13:28 54.91073 -3.64373 29725 ft 439 kts 162°
2026-05-04 13:28 54.88158 -3.62788 30003 ft 439 kts 162°
2026-05-04 13:28 54.85237 -3.61207 30240 ft 439 kts 162°
2026-05-04 13:28 54.82324 -3.59635 30456 ft 439 kts 162°
2026-05-04 13:29 54.79402 -3.58064 30682 ft 439 kts 162°
2026-05-04 13:29 54.76527 -3.56517 30867 ft 439 kts 162°
2026-05-04 13:29 54.70734 -3.53405 31006 ft 445 kts 162°
2026-05-04 13:30 54.64759 -3.50199 31045 ft 454 kts 161°
2026-05-04 13:30 54.58665 -3.46946 31062 ft 462 kts 161°
2026-05-04 13:31 54.52603 -3.43727 31068 ft 462 kts 161°
2026-05-04 13:31 54.46488 -3.40480 31052 ft 462 kts 161°
2026-05-04 13:32 54.40371 -3.37241 31059 ft 458 kts 160°
2026-05-04 13:32 54.34384 -3.34087 31055 ft 456 kts 161°
2026-05-04 13:33 54.28372 -3.30925 31053 ft 454 kts 161°
2026-05-04 13:33 54.22334 -3.27762 31056 ft 454 kts 161°
2026-05-04 13:34 54.16208 -3.25078 31063 ft 457 kts 168°
2026-05-04 13:34 54.09905 -3.24111 31061 ft 459 kts 174°
2026-05-04 13:35 54.00359 -3.22807 31060 ft 458 kts 171°
2026-05-04 13:36 53.94155 -3.20669 31075 ft 454 kts 162°
2026-05-04 13:36 53.88080 -3.18074 31070 ft 454 kts 163°
2026-05-04 13:37 53.81907 -3.15761 31070 ft 454 kts 164°
2026-05-04 13:37 53.75736 -3.13423 31080 ft 454 kts 164°
2026-05-04 13:38 53.69652 -3.11134 31089 ft 454 kts 164°
2026-05-04 13:38 53.63482 -3.08829 31063 ft 452 kts 163°
2026-05-04 13:39 53.57338 -3.06524 31062 ft 452 kts 163°
2026-05-04 13:39 53.51250 -3.04249 31062 ft 452 kts 163°
2026-05-04 13:40 53.45097 -3.01968 31060 ft 452 kts 163°
2026-05-04 13:40 53.39220 -2.99790 31074 ft 452 kts 163°
2026-05-04 13:41 53.33168 -2.97548 31075 ft 453 kts 163°
2026-05-04 13:41 53.27055 -2.95298 31074 ft 453 kts 163°
2026-05-04 13:42 53.17830 -2.91904 31077 ft 453 kts 163°
2026-05-04 13:42 53.11675 -2.89650 31073 ft 452 kts 163°
2026-05-04 13:43 53.05579 -2.87432 31070 ft 452 kts 163°
2026-05-04 13:43 52.99431 -2.85204 31064 ft 452 kts 163°
2026-05-04 13:44 52.93287 -2.82979 31078 ft 451 kts 163°
2026-05-04 13:44 52.87243 -2.80797 31075 ft 446 kts 163°
2026-05-04 13:45 52.81195 -2.78626 31072 ft 444 kts 163°
2026-05-04 13:45 52.75195 -2.76488 31072 ft 443 kts 163°
2026-05-04 13:46 52.69158 -2.74471 31057 ft 445 kts 172°
2026-05-04 13:46 52.66080 -2.74689 31063 ft 450 kts 185°
2026-05-04 13:46 52.62986 -2.75476 31062 ft 451 kts 186°
2026-05-04 13:47 52.56807 -2.77336 31017 ft 452 kts 188°
2026-05-04 13:47 52.53694 -2.78397 30633 ft 461 kts 189°
2026-05-04 13:47 52.50570 -2.79728 30275 ft 467 kts 193°
2026-05-04 13:48 52.47457 -2.81342 29907 ft 469 kts 196°
2026-05-04 13:48 52.44410 -2.82977 29493 ft 465 kts 196°
2026-05-04 13:48 52.41350 -2.84623 29081 ft 457 kts 196°
2026-05-04 13:48 52.38374 -2.86160 28663 ft 440 kts 195°
2026-05-04 13:49 52.35492 -2.87605 28250 ft 426 kts 195°
2026-05-04 13:49 52.32698 -2.89002 27800 ft 415 kts 195°
2026-05-04 13:49 52.29955 -2.90378 27259 ft 408 kts 195°
2026-05-04 13:49 52.27274 -2.91719 26784 ft 400 kts 195°
2026-05-04 13:50 52.24698 -2.93006 26333 ft 398 kts 195°
2026-05-04 13:50 52.22019 -2.94338 25875 ft 395 kts 196°
2026-05-04 13:50 52.19400 -2.95649 25434 ft 392 kts 196°
2026-05-04 13:50 52.16829 -2.96930 24996 ft 390 kts 195°
2026-05-04 13:51 52.14237 -2.98224 24561 ft 388 kts 195°
2026-05-04 13:51 52.11651 -2.99182 24131 ft 385 kts 186°
2026-05-04 13:51 52.09037 -2.99508 23723 ft 383 kts 181°
2026-05-04 13:51 52.06382 -2.99591 23269 ft 381 kts 180°
2026-05-04 13:52 52.01142 -2.99785 22309 ft 379 kts 181°
2026-05-04 13:52 51.98514 -3.00000 21835 ft 377 kts 182°
2026-05-04 13:52 51.95895 -3.00215 21367 ft 376 kts 181°
2026-05-04 13:53 51.93286 -3.00419 20920 ft 375 kts 182°
2026-05-04 13:53 51.90706 -3.00623 20455 ft 367 kts 181°
2026-05-04 13:53 51.88182 -3.00856 20020 ft 361 kts 184°
2026-05-04 13:54 51.83262 -3.01809 19152 ft 351 kts 187°
2026-05-04 13:54 51.80896 -3.02336 18726 ft 347 kts 187°
2026-05-04 13:54 51.76165 -3.03323 17899 ft 338 kts 186°
2026-05-04 13:55 51.73849 -3.03806 17463 ft 333 kts 186°
2026-05-04 13:55 51.70062 -3.04594 16768 ft 327 kts 186°
2026-05-04 13:55 51.67812 -3.05059 16347 ft 324 kts 187°
2026-05-04 13:56 51.65584 -3.05525 15939 ft 321 kts 186°
2026-05-04 13:56 51.63374 -3.05982 15540 ft 319 kts 186°
2026-05-04 13:56 51.59054 -3.06880 14758 ft 314 kts 186°
2026-05-04 13:57 51.56890 -3.07326 14359 ft 312 kts 186°
2026-05-04 13:57 51.54744 -3.07769 13981 ft 310 kts 187°
2026-05-04 13:58 51.48407 -3.09081 12726 ft 305 kts 187°
2026-05-04 13:58 51.44223 -3.09943 11894 ft 301 kts 187°
2026-05-04 13:58 51.42149 -3.10367 11493 ft 299 kts 187°
2026-05-04 13:59 51.40085 -3.10784 11099 ft 298 kts 187°
2026-05-04 13:59 51.38068 -3.11415 10712 ft 296 kts 201°
2026-05-04 13:59 51.34632 -3.14713 9936 ft 283 kts 216°
2026-05-04 14:00 51.33152 -3.16572 9524 ft 280 kts 218°
2026-05-04 14:00 51.30147 -3.20555 8712 ft 278 kts 218°
2026-05-04 14:00 51.28655 -3.22498 8343 ft 276 kts 217°
2026-05-04 14:01 51.27147 -3.24399 7983 ft 275 kts 217°
2026-05-04 14:01 51.25672 -3.26256 7643 ft 272 kts 217°
2026-05-04 14:01 51.22711 -3.29978 7032 ft 266 kts 217°
2026-05-04 14:02 51.21283 -3.31769 6750 ft 263 kts 217°
2026-05-04 14:02 51.19854 -3.33539 6502 ft 259 kts 217°
2026-05-04 14:02 51.18490 -3.35191 6251 ft 255 kts 212°
2026-05-04 14:02 51.16864 -3.36186 5988 ft 249 kts 192°
2026-05-04 14:03 51.15190 -3.36623 5732 ft 247 kts 185°
2026-05-04 14:03 51.13483 -3.36858 5468 ft 247 kts 183°
2026-05-04 14:03 51.11782 -3.36767 5232 ft 243 kts 166°
2026-05-04 14:03 51.10155 -3.36101 5032 ft 242 kts 163°
2026-05-04 14:04 51.06896 -3.34636 4709 ft 244 kts 162°
2026-05-04 14:04 51.05287 -3.33891 4525 ft 242 kts 161°
2026-05-04 14:04 51.03718 -3.33157 4329 ft 236 kts 162°
2026-05-04 14:05 51.00641 -3.31774 3995 ft 223 kts 164°
2026-05-04 14:05 50.99127 -3.31137 3867 ft 226 kts 163°
2026-05-04 14:05 50.97599 -3.30502 3737 ft 227 kts 163°
2026-05-04 14:06 50.96066 -3.29875 3607 ft 227 kts 163°
2026-05-04 14:06 50.94522 -3.29238 3439 ft 231 kts 165°
2026-05-04 14:06 50.92978 -3.28620 3268 ft 234 kts 165°
2026-05-04 14:06 50.91397 -3.27998 3085 ft 232 kts 165°
2026-05-04 14:07 50.89842 -3.27402 2863 ft 227 kts 166°
2026-05-04 14:07 50.88337 -3.26838 2660 ft 223 kts 166°
2026-05-04 14:07 50.86844 -3.26296 2442 ft 218 kts 166°
2026-05-04 14:07 50.85378 -3.25771 2277 ft 212 kts 166°
2026-05-04 14:08 50.83994 -3.25278 2253 ft 203 kts 166°
2026-05-04 14:08 50.82631 -3.24788 2243 ft 196 kts 166°
2026-05-04 14:08 50.81345 -3.24323 2226 ft 184 kts 166°
2026-05-04 14:08 50.80123 -3.23892 2209 ft 177 kts 166°
2026-05-04 14:09 50.77857 -3.23065 2196 ft 158 kts 165°
2026-05-04 14:09 50.76802 -3.22675 2176 ft 154 kts 166°
2026-05-04 14:10 50.74915 -3.23358 2118 ft 149 kts 239°
2026-05-04 14:10 50.74827 -3.24915 2103 ft 144 kts 290°
2026-05-04 14:10 50.75528 -3.25974 2091 ft 145 kts 346°
2026-05-04 14:10 50.76472 -3.25678 2100 ft 142 kts 40°
2026-05-04 14:11 50.76873 -3.24320 2130 ft 141 kts 94°
2026-05-04 14:11 50.75468 -3.22876 2160 ft 143 kts 199°
2026-05-04 14:11 50.74781 -3.23991 2163 ft 150 kts 249°
2026-05-04 14:12 50.74866 -3.25596 2142 ft 156 kts 297°
2026-05-04 14:12 50.75623 -3.26812 2210 ft 156 kts 311°
2026-05-04 14:12 50.75858 -3.29978 1796 ft 142 kts 239°
2026-05-04 14:13 50.75398 -3.31293 1443 ft 130 kts 237°
2026-05-04 14:13 50.74976 -3.32523 1120 ft 125 kts 238°
2026-05-04 14:13 50.74660 -3.33717 859 ft 117 kts 249°
2026-05-04 14:13 50.74461 -3.35028 771 ft 136 kts 255°
2026-05-04 14:14 50.74226 -3.36549 692 ft 144 kts 253°
2026-05-04 14:14 50.73738 -3.39436 210 ft 128 kts 252°
2026-05-04 14:14 50.73533 -3.40723 109 ft 108 kts 253°
2026-05-04 14:15 50.73360 -3.41829 103 ft 38 kts 256°
2026-05-04 14:15 50.73244 -3.42255 110 ft 11 kts 166°
2026-05-04 14:16 50.73079 -3.42128 107 ft 15 kts 79°
2026-05-04 14:16 50.73116 -3.42001 107 ft 11 kts 65°
2026-05-04 14:17 50.73164 -3.41847 106 ft 2 kts 96°
2026-05-04 14:17 50.73158 -3.41828 108 ft 0 kts 121°
2026-05-04 14:17 50.73137 -3.41786 108 ft 5 kts 130°
2026-05-04 14:18 50.73130 -3.41773 110 ft 0 kts 130°